FENGYUN 1C DEB

Satellite information

Favourite Embed

Satellite Type and Status

DEBRISIN ORBIT

Key statistics

Satellite FENGYUN 1C DEB at a glance.

Uptime

9715

Days in orbit

Revolutions

≈ 14.5

Per day

Orbit

SSO

Sun Synchronous Orbit

Inclination

98.8

Latest

Satellite identification and parameters

Extended collection of information and parameters for FENGYUN 1C DEB.

Object identification

Identified? True

Debris? True

Object name: FENGYUN 1C DEB

International designator: 1999-025EK

Object number (NORAD): 29841

Object ID (CCSDS): 29841

Country: PEOPLES REPUBLIC OF CHINA (PRC)

Current information (Y/N): Y

RCS size: SMALL

Orbital parameters

Period: 99.553 minutes

Inclination: 98.8182 deg

SMA: 7115.348 km

Apoapsis: 879.936 km

Periapsis: 594.491 km

RAAN: 292.738 deg

Eccentricy: 0.02005833

Argument of periapsis: 337.0109 deg

Mean anomaly: 202.9709 deg

Mean motion: 14.46466893 rev/day

Mean motion (dot): 0.00004132 rev/day2

B* drag term: 0.00090632374 1/REarth

Two-line elements (TLE)

Creation date: Dec. 11, 2025, 7:14 p.m.

Reference frame: TEME

Reference center: EARTH

Epoch: Dec. 11, 2025, 3:14 p.m. UTC

TLE line 0: 0 FENGYUN 1C DEB

TLE line 1: 1 29841U 99025EK 25345.63520927 .00004132 00000-0 90632-3 0 9995

TLE line 2: 2 29841 98.8182 292.7380 0200583 337.0109 202.9709 14.46466893993072

Live tracking on map

Real-time ground track for satellite FENGYUN 1C DEB.

In-orbit conjunctions

A list of the most updated potential collisions computed for object FENGYUN 1C DEB.

Target Orbit TCA Probability of collision Miss distance Type
COSMOS 1680 LEO 2025-10-02 19:24:00 0.002544956 52.0 (m) PAYLOAD
SL-14 R/B LEO 2025-03-09 04:24:06 0.0001480575 343.0 (m) ROCKET BODY
DIAMANT R/B LEO 2024-11-01 15:08:06 0.0001687414 320.0 (m) ROCKET BODY
OBJECT A SSO 2024-09-17 19:14:26 0.0002773165 385.0 (m) UNKNOWN

Associated space launch

Chinese polar orbiting meteorological satellite

FENGYUN 1C DEB was lifted into orbit during the mission ‘Long March 4B | Feng Yun 1C’, on board a Long March 4B space rocket.

The launch took place on May 10, 1999, 1:33 a.m. from Launch Complex 7.

For more information about the launch, click the button.

Launch to space Long March 4B | Feng Yun 1C
Long March 4B | Feng Yun 1C

Agency: N/A

Status: Launch Successful

Launch date: May 10, 1999, 1:33 a.m. UTC

Rocket: Long March 4B

Launch pad: Launch Complex 7

Location: Taiyuan Satellite Launch Center, People's Republic of China

...

Latest news about this satellite

There are no fresh news available about this satellite. Check back as we update our databases every day.


Newsletter sign-up

Weekly statistics, charts and insights to help you stay on top of the space industry.